Regional Weather Roundup
Issued by NWS

Home | Current Version | Previous Version | Graphics & Text | Print | Product List | Glossary On
Versions: 1 2 3 4 5 6 7 8 9 10 11 12 13 14 15 16 17 18 19 20 21 22 23 24 25 26 27 28 29 30 31 32 33 34 35 36 37 38 39 40 41 42 43 44 45 46 47 48 49 50
003
ASUS43 KIND 291409
RWRIN

WEATHER ROUNDUP FOR INDIANA
NATIONAL WEATHER SERVICE INDIANAPOLIS IN
1000 AM EDT WED MAR 29 2017

NOTE: "FAIR" INDICATES FEW OR NO CLOUDS BELOW 12,000 FEET WITH NO
SIGNIFICANT WEATHER AND/OR OBSTRUCTIONS TO VISIBILITY.

* - STATION DOES NOT REPORT WEATHER SUCH AS PRECIPITATION OR FOG.

+ - STATION NOT QUALITY CONTROLLED BY THE NATIONAL WEATHER SERVICE.
    USE DATA WITH CAUTION...ESPECIALLY DEWPOINT AND RELATIVE
    HUMIDITY OBSERVATIONS.

INZ001>003-010>013-019-020-291500-
NORTHWEST INDIANA

CITY           SKY/WX    TMP DP  RH WIND       PRES   REMARKS
GARY /AIRPORT/ CLOUDY    41  41 100 NE7       30.24F FOG
KNOX *+        MOSUNNY   41  23  48 E7        30.24R
LA PORTE +     CLOUDY    41  37  84 E10       30.25R
MICHIGAN CITY+ CLOUDY    41  41 100 E6        30.24F
MONTICELLO +   CLOUDY    45  38  77 E10       30.20F
RENSSELAER +   MOSUNNY   45  41  87 E14       30.21F
VALPARAISO     CLOUDY    44  40  85 E12       30.22F

$$

LMZ046-743>745-291500-
SOUTHERN LAKE MICHIGAN

STATION/POSITION TIME  TEMP    WIND        PRES    WAVE
                       AIR SEA DIR/SP/G            HT
                 (UTC) (F)     (DEG/KT/KT) (MB)    (FT)
BURNS HARBOR     1340   39      60/  8/  9 1024.4F
MICHIGAN CITY    1340   40      90/  6/  8   N/A

$$

INZ004-005-014>016-021>024-291500-
NORTH CENTRAL INDIANA

CITY           SKY/WX    TMP DP  RH WIND       PRES   REMARKS
ELKHART        MOSUNNY   41  36  81 E12       30.25F
GOSHEN         SUNNY     42  34  73 E12       30.25F
LOGANSPORT +   CLOUDY    43  36  75 E10       30.23S
PERU/GRISSOM   MOSUNNY   43  38  82 E13       30.21R
ROCHESTER +    CLOUDY    46  37  71 E14       30.25R
SOUTH BEND     MOSUNNY   41  35  79 SE14      30.27R
WARSAW +       SUNNY     41  36  81 E10       30.24F

$$

INZ006>009-017-018-025>027-291500-
NORTHEAST INDIANA

CITY           SKY/WX    TMP DP  RH WIND       PRES   REMARKS
ANGOLA *+      SUNNY     41  34  75 E14       30.25F
AUBURN +       SUNNY     43  34  70 E12       30.26F
FORT WAYNE     PTSUNNY   42  36  79 E13       30.25F
HUNTINGTON +   PTSUNNY   41  36  82 E12       30.24R
KENDALLVILLE + SUNNY     41  35  77 E10       30.25F

$$

INZ028-029-035-036-043>045-051>053-291500-
WEST CENTRAL INDIANA

CITY           SKY/WX    TMP DP  RH WIND       PRES   REMARKS
CRAWFORDSVL +  MOSUNNY   46  40  81 E20       30.17S
GREENCASTLE +  CLOUDY    45  41  87 E14       30.17S
LAFAYETTE      SUNNY     47  40  76 E20       30.18F
TERRE HAUTE    CLOUDY    50  43  77 E13       30.15R

$$

INZ030>032-037>040-046>048-054>057-064-065-291500-
CENTRAL INDIANA

CITY           SKY/WX    TMP DP  RH WIND       PRES   REMARKS
ANDERSON       PTSUNNY   43  37  81 E12       30.21S HAZE
CP ATTERBURY + CLOUDY    46  41  81 E12       30.18S
COLUMBUS       CLOUDY    46  45  93 E16       30.18S
FRANKFORT +    PTSUNNY   48  43  83 E14       30.21S
GREENWOOD *+   SUNNY     47  39  74 E12       30.19S
INDIANAPOLIS   MOSUNNY   48  39  71 E14       30.18S
-EAGLE CREEK   SUNNY     48  38  68 E12       30.18S
KOKOMO +       SUNNY     43  37  79 E15       30.23R
MARION +       MOSUNNY   40  35  82 E13       30.23R HAZE
MT COMFORT *+  MOSUNNY   45  39  81 E13       30.20S
SHELBYVILLE    PTSUNNY   50  39  66 E15       30.19S
ZIONSVILLE +   CLOUDY    43  40  87 E14       30.20S

$$

INZ033-034-041-042-049-050-058-059-291500-
EAST CENTRAL INDIANA

CITY           SKY/WX    TMP DP  RH WIND       PRES   REMARKS
MUNCIE         PTSUNNY   41  36  82 E15       30.22S
RICHMOND +     CLOUDY    37  36  93 E13       30.21F

$$

INZ060-061-067>069-081>083-085>088-291500-
SOUTHWEST INDIANA

CITY           SKY/WX    TMP DP  RH WIND       PRES   REMARKS
EVANSVILLE     SUNNY     56  49  77 E13       30.09F
HUNTINGBURG *+ SUNNY     55  50  83 E10       30.11S
WASHINGTON +   PTSUNNY   54  48  80 MISG      30.12S

$$

INZ062-063-066-070>080-084-089>092-291500-
SOUTH CENTRAL AND SOUTHEAST INDIANA

CITY           SKY/WX    TMP DP  RH WIND       PRES   REMARKS
BEDFORD +      CLOUDY    52  45  76 E12       30.13S
BLOOMINGTON    CLOUDY    50  43  77 E13       30.15R
MADISON *+     CLOUDY    46  43  87 NE12      30.18F
NORTH VERNON + CLOUDY    46  45  93 E13       30.18R
SEYMOUR +      CLOUDY    50  45  81 E12       30.16S

$$





USA.gov is the U.S. government's official web portal to all federal, state and local government web resources and services.